Location: Township of North Roscoe
(38.1893°N, 100.1359°W)
Time: 03:58:38
(UTC+00:00)

Daily predictions for brighter satellites

Satellite Brightness Start Highest point End
(mag) Time Altitude Azimuth Time Altitude Azimuth Time Altitude Azimuth
USA 267 3.3 00:11:45 10° SE 00:18:19 86° NE 00:24:55 10° NW
Cosmos 1758 3.3 00:15:06 10° S 00:19:05 87° E 00:23:04 10° N
Meteor 1-24 Rocket 4.4 00:15:03 10° NNW 00:20:46 65° W 00:26:38 10° S
Cosmos 1536 Rocket 4.0 00:16:37 10° NNW 00:20:55 68° W 00:25:11 10° S
MOS 1-B 4.4 00:18:21 10° SSE 00:24:04 67° ENE 00:29:50 10° N
SL-16 R/B 3.7 00:23:15 10° SE 00:26:32 16° E 00:29:48 10° ENE
Cosmos 1892 Rocket 4.5 00:22:47 10° NNE 00:26:36 27° ENE 00:30:21 10° SE
NOSS 3-1 (C) 4.5 00:24:19 10° SSE 00:27:34 17° ESE 00:31:03 10° ENE
Cosmos 1953 2.8 00:23:54 10° SSE 00:27:40 39° E 00:31:28 10° NNE
deb Chang Zheng 4 3.6 00:23:41 10° SSE 00:27:47 56° ENE 00:31:55 10° N
Cosmos 1727 Rocket 4.0 00:23:05 10° N 00:29:16 67° E 00:35:23 10° SSE
Cosmos 1048 Rocket 4.0 00:24:16 10° NNW 00:29:37 75° ENE 00:34:53 10° SSE
CZ-4 R/B 3.0 00:28:09 10° E 00:30:24 15° ENE 00:32:40 10° NNE
Cosmos 405 Rocket 4.0 00:29:34 10° NNE 00:32:42 22° ENE 00:35:50 10° SE
Cosmos 468 4.5 00:28:08 10° NNW 00:33:27 77° ENE 00:38:41 10° SSE
CZ-2C R/B 1.8 00:31:52 10° WSW 00:35:08 36° SSE 00:38:07 11° E
Cosmos 2082 3.7 00:30:29 10° NNW 00:36:04 62° ENE 00:41:37 10° SSE
Landsat 5 3.7 00:34:08 10° NNE 00:38:29 59° ESE 00:42:53 10° S
SL-8 R/B 3.7 00:37:35 10° SW 00:42:21 83° SE 00:47:05 10° ENE
Cosmos 2322 Rocket 3.6 00:39:37 10° SE 00:42:54 16° E 00:45:53 11° ENE
Iridium 4 Rocket 4.0 00:42:31 10° NNE 00:46:29 29° E 00:50:44 10° SE
CZ-2D R/B 3.4 00:42:59 10° S 00:46:48 76° WSW 00:50:40 10° NNW
Cosmos 1125 Rocket 4.1 00:43:14 10° SSW 00:48:26 60° WNW 00:53:38 10° N
ATLAS 5 CENTAUR R/B 1.2 00:46:04 10° SW 00:49:48 85° WNW 00:53:56 10° NNE
Cosmos 494 Rocket 4.1 00:50:22 10° NNW 00:55:35 79° WSW 01:00:43 10° SSE
X-37B 2.2 00:53:11 10° WNW 00:55:56 26° N 00:58:00 14° NE
SL-08 RB Rocket 4.2 00:52:02 10° SE 00:56:10 37° ENE 01:00:22 10° N
Genesis I 3.4 00:53:19 10° NNW 00:57:25 80° WSW 01:01:28 10° SSE
CZ-4B R/B 3.4 00:53:21 10° SSE 00:58:58 83° WSW 01:04:41 10° NNW
GPS 2-04 Rocket1 4.5 00:57:47 10° WSW 01:00:55 24° SSW 01:03:56 10° SSE
Meteor 1-21 Rocket 4.3 00:57:29 10° N 01:03:23 81° E 01:09:18 10° SSE
SKYMED 2 4.0 00:59:33 10° N 01:03:52 65° WNW 01:08:08 10° SSW
Cosmos 1000 Rocket 4.4 00:59:43 10° N 01:05:54 78° E 01:12:06 10° S
YAOGAN 1 2.9 01:05:51 10° SE 01:09:55 43° ENE 01:14:02 10° N
Cosmos 1908 4.4 01:07:17 10° SSW 01:11:02 46° W 01:14:47 10° N
Okean O Rocket 1.9 01:08:34 10° S 01:12:53 69° WSW 01:17:13 10° NNW
Cosmos 1455 Rocket 3.1 01:08:42 10° S 01:13:05 82° W 01:17:33 10° N
MOS 1-B Rocket 4.1 01:06:28 10° NNE 01:13:13 84° WNW 01:19:04 10° SSW
HJ-1C 4.1 01:14:52 31° NE 01:14:52 31° NE 01:17:19 10° N
Cosmos 1980 Rocket 3.4 01:14:38 10° SW 01:20:00 44° WNW 01:25:25 10° N
DMSP B5D1-3 4.5 01:16:43 10° NNE 01:21:48 60° E 01:26:52 10° S
Cosmos 1607 4.0 01:15:53 10° NNW 01:22:09 80° WSW 01:28:16 10° SSE
H-2A R/B 2.0 01:18:19 10° NNE 01:22:20 53° E 01:26:25 10° S
ARGOS 3.2 01:17:45 10° S 01:23:07 81° WSW 01:28:34 10° NNW
NOSS 2-3 (E) 3.6 01:20:09 10° S 01:23:56 46° ESE 01:24:51 38° E
Cosmos 2263 Rocket 2.1 01:19:35 10° NNW 01:25:06 61° ENE 01:29:18 17° SE
Okean-O 3.1 01:25:37 35° ENE 01:25:49 35° ENE 01:29:51 10° N
Cosmos 1544 Rocket 3.4 01:22:12 10° S 01:26:39 79° E 01:31:08 10° N
USA 229 DEB 4.1 01:22:03 10° S 01:27:32 33° ESE 01:28:51 30° E
USA 229 4.1 01:22:11 10° S 01:27:38 32° ESE 01:28:52 30° E
Feng Yun 1-1 Rocket 4.3 01:29:33 10° SSE 01:35:02 81° WSW 01:40:41 10° NNW
Okean 1-7 Rocket 3.4 01:32:12 10° N 01:36:38 81° E 01:41:03 10° S
MetOp-A 4.3 01:34:58 35° ESE 01:36:39 46° ENE 01:41:45 10° N
H-2A R/B 2.8 01:32:51 10° S 01:37:14 70° WSW 01:41:32 10° NNW
Tiangong 1.2 01:34:48 10° WSW 01:37:43 72° WNW 01:37:43 72° WNW
Cosmos 1934 Rocket 4.1 01:33:49 10° SSW 01:39:57 75° W 01:46:02 10° N
DMSP B5D2-2 4.0 01:35:20 10° NNE 01:40:36 85° ESE 01:45:50 10° SSW
Cosmos 371 Rocket 3.3 01:38:17 10° SSW 01:43:08 81° WNW 01:48:02 10° NNE
CSL-04 Rocket 3.9 01:42:48 44° E 01:43:30 46° ENE 01:48:47 10° N
CZ-2C R/B 4.2 01:42:03 10° N 01:47:10 37° WNW 01:52:12 10° SW
H-2A R/B 4.3 01:44:49 10° SSW 01:49:16 27° W 01:53:48 10° NW
NOSS 3-1 (A) 3.4 01:45:01 10° S 01:49:06 43° SE 01:49:06 43° SE
Cosmos 1300 3.9 01:51:11 10° SSW 01:54:48 42° W 01:58:27 10° N
Cosmos 2123 Rocket 4.4 01:53:11 10° NNW 01:59:25 64° W 02:05:37 10° S
Cosmos 1844 Rocket 4.3 01:55:23 10° N 01:57:44 20° NNE 01:57:44 20° NNE
CZ-4 R/B 2.7 02:01:20 10° SSW 02:05:00 38° W 02:08:47 10° NNW
IRS-P2 Rocket 4.4 02:05:51 77° ESE 02:06:03 79° ENE 02:11:17 10° N
SL-16 R/B 2.5 02:04:23 10° SSW 02:09:59 64° WNW 02:14:56 14° NNE
NOSS 2-3 (D) 4.1 02:07:10 10° SW 02:10:34 54° W 02:10:34 54° W
CZ-2C R/B 3.3 02:11:03 10° WSW 02:12:18 20° WSW 02:12:18 20° WSW
NOSS 3-1 (C) 3.7 02:12:32 10° SW 02:17:34 56° NW 02:19:54 33° N
Gbstr 26 Del rocket 4.4 02:16:08 10° NW 02:23:45 88° SW 02:25:11 65° SE
Cosmos 2344 4.4 02:14:40 10° NNW 02:24:05 61° NE 02:26:57 50° E
Cosmos 2322 Rocket 2.5 02:20:48 10° SW 02:26:19 62° WNW 02:27:50 45° N
Cosmos 2360 Rocket 3.9 02:34:21 10° SSW 02:36:11 22° SSW 02:36:11 22° SSW
Lacrosse 4 Rocket 4.4 02:46:22 10° NNW 02:46:33 11° NNW 02:46:33 11° NNW
Cosmos 2082 Rocket 4.2 09:34:29 23° NE 09:34:29 23° NE 09:36:40 10° NNE
COSMOS 2455 4.3 09:46:54 30° ESE 09:47:18 30° ESE 09:52:27 10° NE
CZ-2C R/B 4.3 09:58:31 10° NNE 10:00:30 23° NE 10:00:30 23° NE
Lacrosse 5 rocket 3.9 10:07:30 19° NE 10:07:30 19° NE 10:08:47 10° NE
ATLAS CENTAUR R/B 4.2 10:08:14 13° NNE 10:08:14 13° NNE 10:08:46 10° NNE
Cosmos 1980 Rocket 2.6 10:16:10 58° ESE 10:16:10 58° ESE 10:20:59 10° SSE
CZ-4B R/B 4.2 10:17:13 10° NNE 10:21:05 49° NNE 10:21:05 49° NNE
FENGYUN 3A 3.8 10:17:57 10° NNE 10:23:22 69° E 10:23:22 69° E
Cosmos 2327 Rocket 4.4 10:17:22 10° N 10:23:43 87° E 10:29:54 10° S
ARIANE 5 R/B 4.4 10:19:32 10° N 10:20:57 19° N 10:20:57 19° N
Lacrosse 5 4.3 10:29:35 11° N 10:31:46 14° NNE 10:34:26 10° NE
USA 234 3.1 10:26:09 10° NE 10:32:42 87° NW 10:33:45 66° SW
Meteor 1-22 Rocket 4.3 10:37:48 10° N 10:43:47 81° E 10:49:28 10° SSE
Cosmos 2278 3.6 10:47:20 30° NNW 10:50:20 86° WSW 10:56:03 10° SSE
USA 229 DEB 4.3 10:45:29 10° NNW 10:52:53 65° NE 11:00:40 10° SE
USA 229 4.3 10:45:35 10° NNW 10:52:59 65° NE 11:00:45 10° SE
ALOS 2.7 10:52:05 10° N 10:55:40 48° NNW 10:55:40 48° NNW
Cosmos 2341 Rocket 3.9 10:51:15 10° N 10:57:35 87° E 11:03:49 10° S
Cosmos 1707 2.9 10:59:21 40° SSE 11:00:39 72° E 11:04:32 10° NNE
DELTA 2 R/B (1) 4.1 11:00:50 39° SSW 11:00:58 40° SSW 11:06:05 10° SE
SL-16 R/B 3.2 11:00:22 10° N 11:05:49 46° ENE 11:11:14 10° SE
Cosmos 44 4.3 11:03:53 10° NNW 11:08:33 42° NE 11:12:55 10° SE
OAO 2 Rocket 3.7 11:11:54 37° SW 11:13:29 52° S 11:18:18 10° E
Cosmos 1378 Rocket 3.4 11:10:03 10° S 11:14:26 79° W 11:18:53 10° N
NOSS 3-1 (A) 4.2 11:07:22 10° NNW 11:15:15 90° SW 11:24:15 10° SSE
Cosmos 2082 Rocket 3.6 11:16:22 21° NW 11:16:22 21° NW 11:19:54 10° N
Cosmos 773 Rocket 3.9 11:12:04 10° SSW 11:17:15 89° W 11:22:32 10° NNE
BREEZE-M DEB (TANK) 3.2 11:18:25 24° N 11:18:25 24° N 11:20:23 10° NE
Cosmos 1125 Rocket 3.8 11:17:44 39° W 11:17:58 39° WSW 11:22:45 10° S
Okean 2 Rocket 3.3 11:14:46 10° NNW 11:19:07 47° W 11:23:27 10° SSW
Cosmos 2322 Rocket 3.2 11:16:25 10° N 11:21:51 46° ENE 11:27:16 10° SE
SL-4 R/B 4.5 11:22:21 11° NNW 11:24:31 15° N 11:26:55 10° NE
Cosmos 389 Rocket 2.7 11:23:10 10° N 11:26:40 68° E 11:30:11 10° SSE
Cosmos 1959 Rocket 4.4 11:21:32 10° N 11:27:39 85° W 11:33:46 10° S
CZ-2C R/B 4.3 11:23:27 10° SE 11:28:23 37° ENE 11:33:26 10° N
Cosmos 2366 rocket 3.9 11:23:02 10° N 11:29:23 81° W 11:35:44 10° S
Cosmos 864 Rocket 4.4 11:24:12 10° N 11:30:24 82° W 11:36:37 10° S
METEOR-M 4.4 11:27:16 10° N 11:32:20 45° WNW 11:37:22 10° SW
CZ-2C R/B 4.5 11:29:24 10° NNW 11:30:41 17° NNW 11:30:41 17° NNW
H-2A R/B 3.6 11:28:50 10° NNE 11:32:34 52° E 11:36:13 10° S
Cosmos 1470 3.1 11:29:16 10° NNW 11:32:56 40° W 11:36:34 10° SSW
COSMOS 2455 3.3 11:30:08 25° WSW 11:33:02 41° NW 11:38:42 10° NNE
Meteor 1-21 4.3 11:27:41 10° SSW 11:33:13 54° WNW 11:38:45 10° N
Cosmos 2360 Rocket 3.8 11:30:01 10° N 11:35:13 36° ENE 11:40:23 10° SE
Cosmos 1484 Rocket 3.5 11:35:12 10° N 11:38:33 31° WNW 11:39:07 29° W
Cosmos 1538 Rocket 4.4 11:33:48 10° S 11:39:01 67° ESE 11:44:19 10° NNE
FALCON 9 DEB 4.1 11:39:56 27° SW 11:40:03 27° SW 11:42:56 10° S
CZ-2C R/B 4.1 11:38:00 10° NNW 11:39:52 15° NW 11:39:52 15° NW
Cosmos 2181 Rocket 4.2 11:36:44 10° SSW 11:42:35 47° WNW 11:48:34 10° N
Lacrosse 5 rocket 3.0 11:43:08 17° NW 11:44:05 19° NNW 11:47:13 10° NNE
ATLAS CENTAUR R/B 3.6 11:44:23 11° NW 11:44:23 11° NW 11:45:21 10° NNW
Cosmos 1184 Rocket 2.6 11:41:05 10° S 11:44:16 87° W 11:47:27 10° N
GEOS 3 Rocket 3.5 11:41:29 10° NNE 11:46:36 70° NW 11:51:38 10° SW
CZ-4C R/B 4.3 11:40:17 10° NNW 11:47:07 39° NE 11:54:52 10° ESE
BREEZE-M DEB (TANK) 3.5 11:46:45 15° NW 11:47:52 18° N 11:49:34 10° NE
Cosmos 1674 2.5 11:44:43 10° SSW 11:48:22 61° W 11:52:03 10° N
Cosmos 1674 Rocket 4.4 11:47:26 14° SW 11:50:16 26° WNW 11:53:56 10° NNW
Okean 1 Rocket 3.1 11:47:02 10° NNW 11:51:22 54° W 11:55:42 10° S
Cosmos 1626 2.0 11:50:57 10° S 11:54:38 85° W 11:58:20 10° N
ISS -0.7 11:55:17 10° SSE 11:57:13 14° SE 11:59:08 10° E
